Simultaneous Nadir Overpasses (SNOs) Predictions

Prediction of SNOs between FY3D and TERRA Satellite Orbit:

Table of predicted SNOs for the next 14.0 days since TLE Epoch: 5/18/2019
Index Date (FY3D) Time (FY3D) Lat,Lon (FY3D) SZA (FY3D ) Date (TERRA) Time (TERRA) Lat,Lon (TERRA) SZA (TERRA ) Distance(km) Time Diff (sec)
1 05/18/2019 09:06:40 68.87, 42.50 49.23 05/18/2019 09:07:46 68.90, 42.48 49.26 3.30 66
2 05/18/2019 09:57:21 -68.77,-150.05 130.87 05/18/2019 09:57:16 -68.78,-150.03 130.87 1.26 5
3 05/18/2019 10:48:00 68.37, 17.78 48.72 05/18/2019 10:46:48 68.40, 17.14 48.74 26.24 72
4 05/21/2019 01:23:07 68.90, 158.33 48.70 05/21/2019 01:24:14 68.88, 158.34 48.67 2.74 67
5 05/21/2019 02:13:47 -68.75, -34.14 131.46 05/21/2019 02:13:44 -68.77, -34.16 131.45 2.11 3
6 05/21/2019 03:04:27 68.41, 133.62 48.19 05/21/2019 03:03:15 68.44, 133.07 48.21 22.42 72
7 05/23/2019 17:39:34 68.89, -85.76 48.16 05/23/2019 17:40:42 68.92, -85.73 48.18 3.16 68
8 05/23/2019 18:30:14 -68.73, 81.77 132.01 05/23/2019 18:30:13 -68.75, 81.70 131.99 3.66 1
9 05/23/2019 19:20:55 68.45,-110.55 47.70 05/23/2019 19:19:42 68.53,-110.94 47.78 17.81 73
10 05/26/2019 09:56:01 68.88, 30.13 47.66 05/26/2019 09:57:11 68.89, 30.12 47.67 1.80 70
11 05/26/2019 10:46:42 -68.77,-162.40 132.46 05/26/2019 10:46:41 -68.79,-162.38 132.44 2.49 1
12 05/26/2019 11:37:23 68.49, 5.27 47.26 05/26/2019 11:36:10 68.56, 4.99 47.33 13.98 73
13 05/29/2019 02:12:28 68.87, 146.03 47.21 05/29/2019 02:13:40 68.87, 145.97 47.20 2.26 72
14 05/29/2019 03:03:09 -68.76, -46.50 132.92 05/29/2019 03:03:10 -68.77, -46.52 132.91 1.81 1
15 05/29/2019 03:53:51 68.54, 121.10 46.86 05/29/2019 03:52:38 68.60, 120.91 46.92 9.89 73
16 05/31/2019 18:28:55 68.92, -98.16 46.86 05/31/2019 18:30:07 68.90, -98.11 46.83 2.74 72
17 05/31/2019 19:19:36 -68.80, 69.33 133.27 05/31/2019 19:19:37 -68.80, 69.40 133.27 2.84 1
18 05/31/2019 20:10:18 68.59,-123.08 46.51 05/31/2019 20:09:05 68.63,-123.18 46.55 5.54 73




NCC Satellite Simultaneous Nadir Overpasses (SNOs) Prediction Service
